QPF
0.07 0.05 0.07 0.10 0.02 0.03 0.03 0.05 0.04 0.01 0.00 0.00 0.02 0.04 0.03 0.01 0.00 0.00 0.00 0.00 0.00 0.00 0.00 0.00 0.00 0.00 0.00 0.00 0.00 0.00 0.00 0.00 0.00 0.00 0.00 0.00 0.00 0.00 0.00 0.00 0.00 0.00 0.00
0.08 0.03 0.03 0.06 0.06 0.02 0.00 0.01 0.02 0.03 0.01 0.05 0.02 0.00 0.04 0.07 0.04 0.05 0.03 0.01 0.01 0.00 0.00 0.00 0.00 0.00 0.00 0.00 0.00 0.00 0.00 0.00 0.00 0.00 0.00 0.00 0.00 0.00 0.00 0.00 0.00 0.00 0.00
0.05 0.04 0.01 0.01 0.00 0.00 0.00 0.00 0.00 0.01 0.04 0.03 0.07 0.07 0.01 0.03 0.06 0.05 0.07 0.07 0.05 0.03 0.01 0.00 0.00 0.00 0.00 0.00 0.00 0.00 0.00 0.00 0.00 0.00 0.00 0.00 0.00 0.00 0.00 0.00 0.00 0.00 0.00
0.04 0.07 0.02 0.00 0.00 0.00 0.00 0.00 0.00 0.01 0.01 0.00 0.03 0.04 0.04 0.00 0.00 0.00 0.04 0.08 0.08 0.06 0.03 0.03 0.05 0.05 0.05 0.05 0.04 0.06 0.06 0.04 0.02 0.01 0.00 0.00 0.00 0.00 0.00 0.00 0.00 0.00 0.00
0.10 0.03 0.01 0.00 0.00 0.00 0.00 0.00 0.01 0.01 0.00 0.00 0.00 0.01 0.04 0.03 0.01 0.00 0.00 0.06 0.07 0.09 0.08 0.06 0.06 0.05 0.02 0.03 0.03 0.06 0.04 0.03 0.01 0.01 0.00 0.00 0.00 0.00 0.00 0.00 0.00 0.00 0.00
0.22 0.11 0.02 0.00 0.00 0.00 0.00 0.01 0.01 0.00 0.00 0.00 0.00 0.00 0.00 0.01 0.01 0.01 0.01 0.01 0.04 0.05 0.06 0.06 0.03 0.01 0.02 0.00 0.00 0.00 0.01 0.01 0.02 0.01 0.00 0.00 0.00 0.00 0.00 0.00 0.00 0.00 0.00
0.09 0.09 0.07 0.02 0.00 0.00 0.00 0.00 0.03 0.05 0.04 0.01 0.03 0.02 0.00 0.00 0.00 0.00 0.00 0.01 0.02 0.01 0.01 0.03 0.02 0.01 0.01 0.00 0.01 0.00 0.00 0.00 0.01 0.02 0.00 0.00 0.00 0.00 0.00 0.00 0.00 0.00 0.00
0.03 0.03 0.03 0.04 0.02 0.01 0.00 0.00 0.00 0.00 0.00 0.00 0.00 0.02 0.02 0.00 0.00 0.00 0.01 0.01 0.01 0.01 0.00 0.00 0.00 0.00 0.00 0.00 0.00 0.00 0.00 0.00 0.01 0.00 0.00 0.00 0.00 0.00 0.00 0.00 0.00 0.00 0.00
0.02 0.04 0.02 0.02 0.02 0.01 0.00 0.00 0.00 0.00 0.00 0.00 0.00 0.02 0.04 0.03 0.04 0.03 0.01 0.01 0.00 0.00 0.00 0.00 0.00 0.00 0.01 0.02 0.01 0.00 0.00 0.00 0.02 0.00 0.00 0.00 0.00 0.00 0.00 0.00 0.00 0.00 0.00
0.05 0.02 0.01 0.00 0.01 0.00 0.00 0.00 0.00 0.00 0.00 0.00 0.00 0.00 0.00 0.00 0.00 0.01 0.00 0.00 0.00 0.00 0.00 0.01 0.01 0.02 0.04 0.04 0.03 0.02 0.00 0.00 0.00 0.00 0.00 0.00 0.00 0.00 0.00 0.00 0.00 0.00 0.00
0.01 0.00 0.00 0.00 0.00 0.00 0.00 0.00 0.00 0.00 0.00 0.01 0.01 0.00 0.00 0.00 0.00 0.00 0.00 0.00 0.00 0.00 0.00 0.00 0.00 0.01 0.03 0.04 0.04 0.03 0.02 0.02 0.00 0.00 0.00 0.00 0.00 0.00 0.00 0.00 0.00 0.00 0.00
0.00 0.00 0.00 0.00 0.00 0.00 0.00 0.00 0.00 0.00 0.00 0.00 0.00 0.00 0.00 0.00 0.00 0.00 0.00 0.00 0.00 0.00 0.00 0.00 0.00 0.00 0.00 0.00 0.00 0.00 0.00 0.00 0.00 0.00 0.00 0.00 0.00 0.00 0.00 0.00 0.00 0.00 0.00
0.00 0.00 0.00 0.00 0.00 0.00 0.00 0.00 0.00 0.00 0.00 0.00 0.00 0.00 0.00 0.00 0.00 0.00 0.00 0.00 0.00 0.00 0.00 0.00 0.00 0.00 0.00 0.00 0.00 0.00 0.00 0.00 0.00 0.00 0.00 0.00 0.00 0.00 0.00 0.00 0.00 0.00 0.00
0.00 0.00 0.00 0.00 0.00 0.00 0.00 0.00 0.00 0.00 0.00 0.00 0.00 0.00 0.00 0.00 0.00 0.00 0.00 0.00 0.00 0.00 0.00 0.00 0.00 0.00 0.00 0.00 0.00 0.00 0.00 0.00 0.00 0.00 0.00 0.00 0.00 0.00 0.00 0.00 0.00 0.00 0.01
0.00 0.00 0.00 0.00 0.00 0.00 0.00 0.00 0.00 0.00 0.00 0.00 0.00 0.00 0.00 0.00 0.00 0.00 0.00 0.00 0.00 0.00 0.00 0.00 0.00 0.00 0.00 0.00 0.00 0.00 0.00 0.00 0.00 0.00 0.00 0.00 0.00 0.00 0.00 0.00 0.00 0.01 0.01
0.00 0.00 0.00 0.00 0.00 0.00 0.00 0.00 0.00 0.00 0.00 0.00 0.00 0.00 0.00 0.00 0.00 0.00 0.00 0.00 0.00 0.00 0.00 0.00 0.00 0.00 0.00 0.00 0.00 0.00 0.00 0.00 0.00 0.00 0.00 0.00 0.00 0.00 0.00 0.00 0.00 0.00 0.01
0.00 0.00 0.00 0.00 0.00 0.00 0.00 0.00 0.00 0.00 0.00 0.00 0.00 0.00 0.00 0.00 0.00 0.00 0.00 0.00 0.00 0.00 0.00 0.00 0.00 0.00 0.00 0.00 0.00 0.00 0.00 0.00 0.00 0.00 0.00 0.00 0.00 0.00 0.00 0.00 0.00 0.00 0.00
0.00 0.00 0.00 0.00 0.00 0.00 0.00 0.00 0.00 0.00 0.00 0.00 0.00 0.00 0.00 0.00 0.00 0.00 0.00 0.00 0.00 0.00 0.00 0.00 0.00 0.00 0.00 0.00 0.00 0.00 0.00 0.00 0.00 0.00 0.00 0.00 0.00 0.00 0.00 0.00 0.00 0.00 0.00
0.00 0.00 0.00 0.00 0.00 0.00 0.00 0.00 0.00 0.00 0.00 0.00 0.00 0.00 0.00 0.00 0.00 0.00 0.00 0.00 0.00 0.00 0.00 0.00 0.00 0.00 0.00 0.00 0.00 0.00 0.00 0.00 0.00 0.00 0.00 0.00 0.00 0.00 0.00 0.00 0.00 0.00 0.00
0.00 0.00 0.00 0.00 0.00 0.00 0.00 0.00 0.00 0.00 0.00 0.00 0.00 0.00 0.00 0.00 0.00 0.00 0.00 0.00 0.00 0.00 0.00 0.00 0.00 0.00 0.00 0.00 0.00 0.00 0.00 0.00 0.00 0.00 0.00 0.00 0.00 0.00 0.00 0.00 0.00 0.00 0.00
0.00 0.00 0.00 0.00 0.00 0.00 0.00 0.00 0.00 0.00 0.00 0.00 0.00 0.00 0.00 0.00 0.00 0.00 0.00 0.00 0.00 0.00 0.00 0.00 0.00 0.00 0.00 0.00 0.00 0.00 0.00 0.00 0.00 0.00 0.00 0.00 0.00 0.00 0.00 0.00 0.00 0.00 0.00
0.00 0.00 0.00 0.00 0.00 0.00 0.00 0.00 0.00 0.00 0.00 0.00 0.00 0.00 0.00 0.00 0.00 0.00 0.00 0.00 0.00 0.00 0.00 0.00 0.00 0.00 0.00 0.00 0.00 0.00 0.00 0.00 0.00 0.00 0.00 0.00 0.00 0.00 0.00 0.00 0.00 0.00 0.00
0.00 0.00 0.00 0.00 0.00 0.00 0.00 0.00 0.00 0.00 0.00 0.00 0.00 0.00 0.00 0.00 0.00 0.00 0.00 0.00 0.00 0.00 0.00 0.00 0.00 0.00 0.00 0.00 0.00 0.00 0.00 0.00 0.00 0.00 0.00 0.00 0.00 0.00 0.00 0.00 0.00 0.00 0.00
0.00 0.00 0.00 0.00 0.00 0.00 0.00 0.00 0.00 0.00 0.00 0.00 0.00 0.00 0.00 0.00 0.00 0.00 0.00 0.00 0.00 0.00 0.00 0.00 0.00 0.00 0.00 0.00 0.00 0.00 0.00 0.00 0.00 0.00 0.00 0.00 0.00 0.01 0.00 0.00 0.00 0.00 0.00
0.00 0.00 0.00 0.00 0.00 0.00 0.00 0.00 0.00 0.00 0.00 0.00 0.00 0.00 0.00 0.00 0.00 0.00 0.00 0.00 0.00 0.00 0.00 0.00 0.01 0.00 0.00 0.01 0.01 0.01 0.01 0.01 0.00 0.00 0.00 0.00 0.00 0.00 0.00 0.00 0.00 0.00 0.00
0.00 0.00 0.00 0.00 0.00 0.00 0.00 0.00 0.00 0.00 0.00 0.00 0.00 0.00 0.00 0.00 0.00 0.00 0.00 0.00 0.00 0.00 0.00 0.00 0.00 0.00 0.00 0.01 0.01 0.00 0.00 0.00 0.00 0.00 0.00 0.00 0.00 0.00 0.00 0.00 0.00 0.00 0.00
MSLP
1019.54 1020.03 1020.33 1020.64 1020.97 1021.18 1021.28 1021.30 1021.30 1021.35 1021.50 1021.70 1021.80 1021.94 1022.10 1022.28 1022.39 1022.67 1022.80 1023.04 1023.11 1023.12 1023.23 1023.22 1023.18 1023.24 1022.99 1023.02 1022.92 1022.78 1022.60 1022.44 1021.87 1021.30 1021.58 1021.29 1021.23 1020.87 1020.51 1020.34 1019.88 1019.59 1019.35
1019.15 1019.97 1020.34 1020.68 1020.79 1020.83 1021.01 1021.10 1020.98 1021.21 1021.48 1021.65 1021.74 1021.90 1021.91 1022.11 1022.22 1022.64 1022.75 1022.73 1022.90 1022.94 1023.03 1023.12 1023.08 1023.04 1023.11 1023.10 1022.89 1022.89 1022.68 1022.69 1022.35 1021.82 1021.62 1021.15 1021.20 1020.88 1020.74 1020.42 1019.92 1019.47 1019.50
1019.51 1020.08 1020.44 1020.73 1020.86 1020.83 1020.89 1020.93 1021.01 1021.12 1021.33 1021.37 1021.57 1021.77 1021.93 1022.04 1022.33 1022.52 1022.62 1022.68 1022.85 1022.90 1022.91 1022.92 1022.86 1022.88 1022.90 1022.75 1022.87 1022.74 1022.54 1022.52 1022.41 1021.99 1021.48 1021.34 1021.05 1020.79 1020.51 1020.07 1020.06 1019.79 1019.12
1019.87 1020.50 1020.71 1020.92 1021.02 1021.14 1021.04 1020.89 1020.82 1020.72 1021.08 1021.32 1021.47 1021.67 1021.91 1021.92 1022.14 1022.46 1022.62 1022.65 1022.71 1022.72 1022.70 1022.59 1022.59 1022.65 1022.77 1022.86 1022.79 1022.79 1022.70 1022.59 1022.13 1022.01 1021.47 1021.05 1020.83 1020.70 1020.64 1020.05 1019.67 1019.45 1019.27
1020.46 1020.56 1021.00 1021.21 1021.24 1021.24 1021.18 1020.98 1020.93 1020.82 1020.95 1021.17 1021.36 1021.65 1021.82 1021.84 1021.90 1022.51 1022.53 1022.50 1022.45 1022.43 1022.43 1022.35 1021.97 1022.19 1022.53 1022.71 1022.88 1022.69 1022.55 1022.25 1021.86 1021.64 1021.22 1020.91 1020.53 1020.37 1020.29 1020.27 1019.82 1019.41 1018.80
1020.72 1021.03 1021.34 1021.32 1021.60 1021.65 1021.62 1021.35 1021.24 1021.30 1021.22 1021.29 1021.43 1021.67 1021.87 1022.02 1022.78 1022.57 1022.58 1022.22 1022.23 1022.23 1022.15 1021.98 1021.78 1022.00 1022.06 1022.48 1022.50 1022.47 1022.58 1022.30 1022.07 1021.60 1021.14 1020.77 1020.77 1020.52 1020.18 1020.12 1019.78 1019.34 1018.75
1021.52 1021.67 1021.91 1021.36 1022.13 1021.89 1022.14 1021.89 1021.83 1021.80 1021.76 1021.61 1021.77 1022.02 1022.36 1022.69 1022.92 1022.64 1022.42 1021.97 1021.94 1021.92 1021.92 1021.78 1021.64 1021.15 1021.48 1021.48 1021.75 1022.01 1022.09 1022.10 1022.06 1021.82 1021.06 1020.65 1020.40 1020.28 1020.32 1020.08 1019.62 1019.32 1018.81
1021.91 1022.09 1022.44 1022.03 1022.65 1022.37 1022.40 1022.21 1022.24 1022.27 1022.24 1022.10 1022.18 1022.33 1022.55 1022.91 1023.18 1023.07 1022.55 1021.97 1022.01 1021.97 1021.90 1021.77 1021.80 1021.76 1022.13 1022.37 1022.05 1021.75 1021.42 1021.19 1020.80 1020.69 1020.59 1020.23 1020.01 1019.89 1020.00 1019.81 1019.69 1019.40 1018.69
1022.84 1023.18 1023.15 1022.88 1023.05 1022.94 1022.57 1022.89 1022.72 1022.66 1022.64 1022.59 1022.70 1022.90 1022.99 1023.28 1023.31 1023.11 1022.72 1022.35 1022.06 1022.11 1022.04 1021.77 1022.18 1022.22 1023.11 1023.11 1022.39 1021.57 1021.14 1020.53 1020.11 1020.64 1020.79 1020.69 1020.50 1020.42 1020.45 1019.98 1019.12 1018.45 1017.59
1023.64 1023.90 1023.76 1023.44 1023.13 1023.23 1023.47 1023.54 1023.47 1023.11 1023.19 1022.91 1022.93 1023.40 1023.71 1023.86 1024.08 1023.88 1022.93 1022.88 1022.77 1022.59 1022.62 1022.84 1023.13 1023.20 1023.28 1023.21 1023.04 1022.40 1021.49 1020.69 1020.40 1020.13 1019.94 1019.70 1019.98 1019.42 1019.92 1019.77 1019.14 1018.43 1017.67
1023.86 1024.00 1024.24 1024.02 1023.81 1023.92 1023.96 1023.93 1023.81 1023.53 1023.36 1023.38 1023.73 1024.00 1024.39 1024.67 1024.52 1024.48 1024.44 1023.75 1023.57 1023.11 1022.64 1022.78 1022.82 1023.54 1023.64 1023.42 1023.27 1022.92 1022.61 1022.51 1021.16 1020.58 1019.98 1019.44 1019.02 1018.74 1018.43 1018.38 1018.60 1018.62 1017.96
1024.64 1024.72 1024.98 1024.94 1024.52 1024.57 1024.66 1024.69 1024.37 1024.22 1024.10 1024.13 1024.37 1024.35 1024.57 1024.60 1025.24 1025.07 1025.01 1024.78 1024.20 1023.87 1023.34 1023.15 1022.97 1023.72 1023.62 1023.38 1022.67 1022.81 1022.50 1022.28 1021.01 1020.13 1019.67 1019.28 1019.03 1018.81 1018.45 1018.26 1018.39 1018.31 1017.93
1025.26 1025.38 1025.59 1025.63 1025.37 1025.39 1025.04 1025.20 1025.23 1025.02 1024.70 1024.75 1024.71 1024.73 1024.73 1024.93 1024.97 1025.27 1025.22 1025.03 1025.05 1024.56 1023.82 1023.68 1023.81 1023.80 1022.96 1022.21 1022.37 1022.46 1022.04 1021.49 1020.94 1020.26 1019.76 1019.63 1019.42 1019.16 1019.03 1018.52 1018.25 1017.82 1017.41
1025.69 1025.90 1025.97 1025.95 1025.98 1026.03 1026.01 1026.06 1025.96 1025.75 1025.53 1025.49 1025.54 1025.34 1025.29 1025.38 1025.46 1025.33 1025.01 1024.15 1024.33 1024.15 1024.32 1023.23 1023.41 1023.32 1023.17 1023.09 1022.32 1021.77 1021.51 1021.42 1021.28 1020.61 1020.48 1020.06 1019.62 1019.08 1018.91 1018.64 1018.31 1018.16 1017.45
1025.55 1025.71 1026.07 1026.10 1026.17 1026.22 1026.60 1026.88 1026.82 1027.17 1027.05 1026.75 1026.68 1026.40 1026.19 1026.45 1027.21 1027.41 1027.05 1026.21 1025.83 1025.46 1025.02 1023.44 1023.27 1022.83 1022.22 1022.09 1021.89 1021.82 1021.80 1021.75 1021.47 1021.10 1020.70 1020.20 1019.89 1019.51 1018.97 1018.80 1018.49 1018.07 1017.47
1025.58 1025.92 1026.04 1026.07 1026.32 1026.33 1026.35 1026.97 1027.68 1027.71 1027.80 1028.02 1028.09 1027.82 1027.29 1027.97 1027.81 1027.37 1027.20 1026.78 1026.20 1025.76 1024.43 1023.72 1023.34 1023.01 1022.77 1022.51 1022.03 1021.60 1021.41 1021.54 1021.35 1021.28 1020.91 1020.92 1020.38 1019.94 1019.59 1019.08 1018.69 1018.22 1017.70
1025.85 1026.07 1026.43 1026.51 1026.73 1026.71 1026.68 1026.75 1027.11 1028.04 1028.15 1028.37 1028.37 1028.42 1028.34 1028.43 1027.79 1027.49 1027.21 1026.55 1025.73 1025.56 1024.60 1023.98 1023.65 1023.14 1022.95 1022.61 1022.13 1021.97 1021.77 1021.79 1021.96 1021.52 1021.15 1020.93 1020.36 1020.09 1020.06 1019.34 1018.86 1018.51 1017.97
1026.01 1026.47 1026.34 1026.52 1026.75 1026.89 1027.04 1027.21 1027.26 1027.47 1027.66 1027.81 1028.33 1028.43 1028.50 1028.39 1028.04 1027.62 1026.87 1025.89 1025.35 1025.29 1024.87 1024.80 1024.24 1023.30 1023.50 1023.65 1023.40 1023.20 1022.95 1022.64 1022.27 1021.85 1021.72 1021.50 1021.00 1020.40 1020.01 1019.42 1019.12 1018.67 1018.32
1026.00 1026.20 1026.46 1026.68 1026.91 1027.19 1027.29 1027.37 1027.47 1027.62 1027.73 1027.82 1027.90 1027.92 1028.06 1028.25 1027.72 1027.48 1027.01 1026.52 1026.18 1025.81 1025.25 1024.81 1024.39 1023.84 1023.47 1023.59 1023.47 1023.43 1023.30 1022.88 1022.63 1022.20 1021.56 1021.20 1021.49 1021.59 1020.95 1020.34 1019.76 1019.41 1018.97
1026.25 1026.64 1026.70 1026.96 1027.29 1027.31 1027.42 1027.40 1027.47 1027.60 1027.75 1027.93 1027.99 1028.13 1027.98 1027.56 1027.07 1027.09 1027.20 1027.10 1026.84 1026.35 1026.02 1025.85 1025.75 1025.57 1024.97 1024.38 1023.99 1023.71 1023.22 1022.84 1022.56 1022.23 1021.98 1021.70 1021.42 1021.24 1021.18 1020.84 1020.36 1019.81 1019.25
1025.82 1026.46 1026.70 1026.87 1026.94 1027.10 1027.35 1027.38 1027.47 1027.52 1027.59 1027.70 1027.97 1028.42 1028.86 1028.19 1027.82 1027.69 1027.61 1027.42 1027.18 1026.94 1026.59 1026.24 1025.89 1025.60 1025.18 1025.05 1024.82 1024.40 1024.03 1023.43 1022.94 1022.48 1022.15 1021.93 1021.69 1021.51 1021.43 1021.13 1020.80 1020.36 1019.61
1025.58 1026.01 1026.44 1026.54 1026.93 1027.24 1027.39 1027.54 1027.65 1027.72 1027.78 1027.74 1027.83 1027.99 1028.38 1027.80 1027.63 1027.53 1027.48 1027.50 1027.54 1027.69 1027.39 1026.91 1026.44 1025.95 1025.23 1025.02 1024.97 1024.45 1024.02 1023.66 1023.25 1022.91 1022.48 1022.14 1021.81 1021.47 1021.25 1020.98 1020.66 1020.18 1019.62
1025.55 1025.80 1026.01 1026.31 1026.63 1027.11 1027.31 1027.26 1027.33 1027.33 1027.30 1027.42 1027.58 1027.56 1027.49 1027.40 1027.29 1027.21 1027.19 1027.04 1027.16 1027.38 1027.30 1027.15 1026.83 1026.18 1025.64 1025.31 1024.82 1024.25 1023.88 1023.30 1022.90 1022.86 1022.57 1022.23 1021.97 1021.65 1021.22 1020.57 1020.19 1019.70 1019.20
1025.38 1025.64 1025.59 1025.82 1026.23 1026.32 1026.51 1026.65 1026.79 1027.29 1027.10 1026.89 1027.01 1027.12 1027.03 1026.95 1026.87 1026.88 1026.82 1026.78 1026.97 1027.08 1026.99 1026.88 1026.59 1026.16 1025.63 1025.13 1024.73 1024.30 1023.46 1023.06 1022.81 1022.40 1022.10 1021.82 1021.43 1021.12 1020.71 1020.30 1019.85 1019.24 1018.61
1025.08 1025.51 1025.45 1025.38 1025.59 1025.73 1025.77 1026.15 1026.07 1026.09 1026.12 1026.20 1026.27 1026.26 1026.15 1026.12 1026.05 1026.01 1026.00 1026.24 1026.31 1026.55 1026.62 1026.45 1026.18 1025.72 1025.38 1025.00 1024.44 1023.88 1023.36 1023.14 1022.90 1022.67 1022.25 1021.67 1021.11 1020.68 1020.24 1019.74 1019.23 1018.52 1017.89
1024.65 1025.05 1025.02 1025.03 1025.11 1025.26 1025.33 1025.37 1025.38 1025.47 1025.53 1025.63 1025.64 1025.60 1025.71 1025.76 1025.76 1025.90 1026.05 1026.12 1026.48 1026.47 1026.30 1026.06 1025.76 1025.37 1024.92 1024.44 1023.81 1023.38 1023.11 1022.84 1022.35 1022.07 1021.76 1021.14 1020.53 1019.91 1019.36 1018.74 1018.13 1017.41 1016.64
Thickness
5757 5755 5756 5755 5755 5755 5757 5758 5760 5760 5760 5761 5761 5761 5761 5762 5763 5764 5764 5763 5763 5765 5766 5767 5769 5770 5773 5773 5775 5776 5776 5777 5773 5784 5786 5788 5788 5791 5792 5793 5795 5796 5797
5757 5753 5752 5752 5755 5756 5757 5757 5759 5760 5759 5758 5760 5761 5764 5763 5763 5763 5764 5767 5766 5765 5766 5766 5767 5769 5769 5771 5773 5772 5774 5775 5774 5773 5782 5788 5787 5789 5789 5791 5793 5795 5795
5748 5747 5747 5748 5750 5753 5756 5757 5757 5759 5758 5759 5759 5760 5762 5763 5762 5763 5764 5765 5764 5765 5766 5767 5768 5768 5769 5772 5772 5773 5775 5775 5775 5775 5779 5785 5788 5790 5791 5793 5791 5792 5796
5740 5738 5739 5741 5743 5746 5750 5755 5757 5758 5758 5758 5759 5758 5758 5759 5761 5761 5762 5763 5763 5764 5764 5766 5767 5767 5767 5768 5770 5771 5772 5772 5775 5773 5777 5781 5784 5787 5787 5787 5789 5793 5793
5728 5731 5731 5734 5737 5740 5744 5749 5753 5756 5757 5757 5756 5756 5756 5757 5760 5758 5759 5760 5762 5762 5763 5764 5765 5765 5765 5766 5767 5769 5771 5772 5775 5774 5775 5778 5780 5782 5781 5784 5785 5789 5795
5716 5719 5721 5726 5727 5729 5733 5739 5744 5747 5750 5751 5752 5752 5752 5755 5751 5754 5755 5759 5759 5760 5761 5764 5765 5765 5765 5766 5767 5767 5768 5769 5769 5773 5774 5774 5774 5779 5784 5783 5785 5784 5781
5699 5705 5708 5717 5714 5720 5722 5729 5732 5735 5738 5743 5744 5744 5743 5744 5745 5749 5750 5756 5757 5758 5759 5761 5763 5769 5766 5767 5768 5767 5768 5769 5769 5771 5771 5774 5774 5778 5778 5779 5783 5784 5785
5688 5692 5694 5702 5700 5707 5714 5719 5721 5724 5727 5731 5734 5736 5736 5737 5738 5741 5745 5750 5751 5753 5754 5755 5757 5761 5762 5761 5765 5767 5769 5771 5770 5770 5772 5775 5777 5777 5777 5779 5778 5780 5787
5675 5673 5679 5687 5688 5693 5700 5702 5710 5712 5714 5719 5722 5724 5725 5728 5729 5732 5736 5741 5744 5744 5746 5748 5750 5754 5748 5749 5757 5761 5763 5766 5770 5768 5768 5768 5770 5772 5771 5773 5777 5782 5784
5666 5666 5669 5678 5686 5689 5692 5695 5697 5702 5702 5708 5711 5710 5710 5714 5716 5719 5723 5727 5730 5732 5733 5734 5735 5737 5739 5742 5745 5749 5753 5759 5761 5763 5765 5767 5766 5768 5768 5768 5773 5774 5779
5661 5662 5666 5674 5679 5681 5683 5685 5689 5693 5695 5696 5695 5696 5696 5698 5703 5705 5706 5713 5715 5720 5724 5725 5728 5726 5727 5731 5733 5737 5740 5739 5747 5752 5757 5761 5765 5768 5768 5768 5767 5767 5770
5648 5653 5656 5660 5668 5671 5671 5672 5678 5681 5683 5684 5684 5686 5687 5686 5685 5688 5690 5693 5697 5702 5708 5710 5713 5714 5718 5721 5725 5726 5730 5733 5742 5745 5749 5752 5753 5755 5760 5760 5760 5761 5764
5639 5640 5643 5646 5653 5656 5663 5662 5663 5668 5673 5674 5675 5676 5677 5676 5674 5676 5678 5680 5678 5684 5693 5692 5695 5699 5707 5713 5714 5717 5721 5729 5731 5733 5737 5738 5741 5744 5744 5748 5749 5753 5758
5627 5628 5631 5635 5639 5641 5644 5647 5651 5654 5658 5661 5661 5663 5663 5664 5665 5665 5668 5674 5673 5675 5677 5683 5684 5689 5693 5694 5703 5709 5712 5713 5712 5716 5718 5723 5727 5731 5733 5736 5739 5740 5745
5618 5620 5621 5624 5626 5629 5629 5632 5635 5632 5636 5642 5642 5646 5650 5648 5644 5643 5647 5653 5657 5659 5663 5672 5672 5678 5685 5687 5691 5694 5695 5696 5698 5699 5704 5709 5712 5716 5721 5723 5724 5727 5732
5605 5606 5608 5611 5613 5616 5618 5617 5614 5616 5617 5618 5618 5621 5625 5622 5625 5632 5636 5638 5644 5648 5659 5660 5661 5665 5668 5670 5674 5680 5684 5683 5686 5686 5690 5690 5696 5699 5702 5707 5709 5712 5716
5588 5589 5589 5592 5592 5595 5598 5602 5603 5596 5597 5599 5602 5602 5604 5606 5612 5616 5620 5628 5633 5636 5644 5647 5647 5651 5652 5655 5661 5663 5666 5667 5665 5669 5673 5674 5681 5684 5685 5691 5695 5697 5701
5575 5572 5577 5578 5577 5578 5580 5581 5583 5585 5587 5588 5585 5586 5588 5591 5595 5600 5606 5614 5621 5623 5625 5622 5626 5634 5632 5631 5634 5637 5640 5644 5647 5650 5651 5653 5659 5665 5669 5675 5678 5681 5685
5562 5563 5563 5563 5563 5562 5563 5565 5566 5566 5568 5569 5572 5572 5572 5573 5579 5582 5586 5591 5594 5597 5602 5605 5609 5614 5617 5616 5617 5618 5619 5623 5626 5630 5636 5639 5636 5636 5642 5649 5654 5655 5659
5545 5543 5546 5546 5545 5547 5548 5550 5551 5551 5552 5552 5553 5553 5555 5560 5564 5565 5564 5565 5568 5573 5575 5576 5576 5577 5584 5591 5595 5597 5603 5606 5608 5611 5613 5616 5619 5621 5622 5625 5630 5635 5641
5534 5531 5530 5531 5532 5533 5532 5533 5534 5535 5536 5537 5536 5533 5528 5536 5540 5541 5541 5542 5544 5547 5549 5553 5556 5558 5561 5562 5567 5571 5574 5579 5584 5588 5591 5594 5596 5597 5599 5602 5606 5609 5616
5519 5518 5516 5518 5516 5515 5515 5515 5515 5516 5517 5519 5519 5519 5514 5521 5522 5523 5523 5522 5521 5520 5522 5525 5528 5531 5537 5540 5542 5547 5551 5554 5556 5559 5564 5567 5571 5575 5577 5579 5582 5587 5592
5504 5503 5503 5502 5501 5499 5499 5502 5503 5504 5505 5505 5504 5505 5506 5506 5506 5506 5506 5506 5504 5502 5502 5503 5505 5509 5512 5513 5516 5520 5525 5530 5531 5532 5535 5539 5542 5545 5549 5554 5558 5563 5567
5490 5489 5491 5490 5488 5489 5489 5490 5490 5485 5488 5491 5491 5490 5491 5490 5490 5488 5487 5486 5484 5483 5482 5483 5484 5486 5489 5491 5493 5494 5498 5501 5502 5505 5507 5513 5517 5520 5523 5526 5530 5534 5540
5477 5475 5477 5479 5478 5479 5480 5478 5480 5480 5480 5479 5479 5478 5478 5478 5477 5475 5473 5470 5467 5465 5462 5461 5461 5462 5463 5463 5466 5469 5471 5473 5474 5474 5477 5483 5490 5492 5496 5500 5504 5510 5515
5466 5465 5467 5468 5468 5468 5468 5469 5470 5470 5469 5468 5467 5467 5464 5462 5461 5457 5453 5450 5443 5440 5437 5436 5436 5436 5437 5437 5439 5441 5442 5443 5445 5446 5448 5454 5459 5465 5469 5475 5481 5487 5496